TimeEST,TemperatureF,Dew PointF,Humidity,Sea Level PressureIn,VisibilityMPH,Wind Direction,Wind SpeedMPH,Gust SpeedMPH,PrecipitationIn,Events,Conditions,WindDirDegrees,DateUTC
12:54 AM,32.0,27.0,82,30.26,10.0,WSW,6.9,-,N/A,,Overcast,240,2012-02-04 05:54:00
1:21 AM,32.0,28.4,87,30.23,10.0,WSW,5.8,-,N/A,,Overcast,250,2012-02-04 06:21:00
1:54 AM,32.0,28.0,85,30.26,10.0,WSW,5.8,-,N/A,,Overcast,250,2012-02-04 06:54:00
2:54 AM,32.0,28.0,85,30.24,10.0,WSW,6.9,-,N/A,,Overcast,240,2012-02-04 07:54:00
3:54 AM,32.0,28.9,88,30.23,10.0,SW,6.9,-,N/A,,Overcast,230,2012-02-04 08:54:00
4:54 AM,33.1,28.0,82,30.22,10.0,WSW,6.9,-,N/A,,Overcast,240,2012-02-04 09:54:00
5:54 AM,33.1,26.1,75,30.22,10.0,West,9.2,-,N/A,,Overcast,270,2012-02-04 10:54:00
6:54 AM,32.0,25.0,75,30.24,10.0,WNW,8.1,-,N/A,,Overcast,290,2012-02-04 11:54:00
7:54 AM,32.0,24.1,73,30.25,10.0,WNW,4.6,-,N/A,,Overcast,290,2012-02-04 12:54:00
8:54 AM,32.0,23.0,69,30.25,10.0,NNW,4.6,-,N/A,,Overcast,340,2012-02-04 13:54:00
9:54 AM,34.0,23.0,64,30.24,10.0,WNW,5.8,-,N/A,,Overcast,290,2012-02-04 14:54:00
10:02 AM,33.8,21.2,60,30.21,10.0,Variable,5.8,-,N/A,,Overcast,0,2012-02-04 15:02:00
10:54 AM,33.1,21.0,61,30.23,10.0,NNW,9.2,-,N/A,,Overcast,340,2012-02-04 15:54:00
11:08 AM,33.8,21.2,60,30.20,10.0,Variable,4.6,-,N/A,,Overcast,0,2012-02-04 16:08:00
11:54 AM,36.0,23.0,59,30.20,10.0,NNW,5.8,-,N/A,,Scattered Clouds,340,2012-02-04 16:54:00
12:54 PM,35.1,21.0,57,30.18,10.0,NNW,9.2,-,N/A,,Mostly Cloudy,340,2012-02-04 17:54:00
1:54 PM,35.1,21.0,57,30.17,10.0,Variable,5.8,-,N/A,,Mostly Cloudy,0,2012-02-04 18:54:00
2:54 PM,35.1,19.9,54,30.15,10.0,NNW,5.8,-,N/A,,Mostly Cloudy,330,2012-02-04 19:54:00
3:54 PM,33.1,18.0,54,30.14,10.0,NW,5.8,-,N/A,,Partly Cloudy,310,2012-02-04 20:54:00
4:54 PM,30.9,18.0,59,30.14,10.0,NW,3.5,-,N/A,,Clear,320,2012-02-04 21:54:00
5:54 PM,28.9,18.0,64,30.14,10.0,Calm,Calm,-,N/A,,Clear,0,2012-02-04 22:54:00
6:54 PM,27.0,16.0,63,30.14,10.0,Calm,Calm,-,N/A,,Clear,0,2012-02-04 23:54:00
7:54 PM,24.1,18.0,77,30.15,10.0,Calm,Calm,-,N/A,,Clear,0,2012-02-05 00:54:00
8:54 PM,25.0,12.9,60,30.17,10.0,NNW,3.5,-,N/A,,Mostly Cloudy,340,2012-02-05 01:54:00
9:54 PM,23.0,12.9,65,30.16,10.0,Calm,Calm,-,N/A,,Clear,0,2012-02-05 02:54:00
10:54 PM,21.0,12.9,71,30.15,10.0,Calm,Calm,-,N/A,,Clear,0,2012-02-05 03:54:00
11:54 PM,19.0,12.9,77,30.14,10.0,Calm,Calm,-,N/A,,Clear,0,2012-02-05 04:54:00